Location: Katowice
(50.2611°N, 19.0242°E)
Time: 03:11:30
(UTC+02:00)

Vanguard 1 Rocket - All Passes

Search period start: 20 August 2019 00:00
Search period end: 30 August 2019 00:00
Orbit: 652 x 4224 km, 34.3° (Epoch: 18 August)

Date Brightness Start Highest point End Pass type
(mag) Time Alt. Az. Time Alt. Az. Time Alt. Az.
20 Aug - 04:53:12 10° SSW 04:57:11 20° SSE 05:02:37 10° ESE visible
20 Aug - 07:16:00 10° SW 07:21:37 23° S 07:30:13 10° SE daylight
20 Aug - 09:42:21 10° SW 09:47:22 14° SSW 09:53:44 10° S daylight
21 Aug - 03:44:14 10° S 03:46:42 13° SSE 03:49:34 10° SE visible
21 Aug - 06:05:51 10° SW 06:10:33 22° S 06:17:28 10° SE daylight
21 Aug - 08:30:21 10° SW 08:35:40 17° SSW 08:43:02 10° SSE daylight
22 Aug - 04:56:03 10° SW 04:59:47 19° S 05:04:50 10° SE visible
22 Aug - 07:19:25 10° SW 07:24:18 19° S 07:31:14 10° SSE daylight
23 Aug - 03:46:41 10° SSW 03:49:15 14° SSE 03:52:16 10° SE visible
23 Aug - 06:09:02 10° SW 06:13:14 19° S 06:19:04 10° SE daylight
23 Aug - 08:35:13 10° SW 08:38:21 12° SSW 08:42:02 10° S daylight
24 Aug - 04:59:01 10° SW 05:02:27 17° S 05:06:54 10° SE visible
24 Aug - 07:23:20 10° SW 07:27:00 14° SSW 07:31:41 10° SSE daylight
25 Aug - 03:49:20 10° SSW 03:51:52 14° S 03:54:47 10° SE visible
25 Aug - 06:12:32 10° SW 06:15:56 15° S 06:20:20 10° SSE daylight
26 Aug - 02:40:33 10° S 02:41:22 10° SSE 02:42:11 10° SSE visible
26 Aug - 05:02:13 10° SW 05:05:09 15° S 05:08:43 10° SSE visible
27 Aug - 03:52:13 10° SSW 03:54:31 13° S 03:57:07 10° SSE visible
27 Aug - 06:16:51 10° SSW 06:18:40 11° SSW 06:20:43 10° S daylight
28 Aug - 02:42:35 10° S 02:43:59 11° S 02:45:25 10° SSE visible
28 Aug - 05:05:51 10° SSW 05:07:50 12° S 05:10:06 10° SSE visible
29 Aug - 03:55:22 10° SSW 03:57:11 12° S 03:59:09 10° SSE visible
